Regional Weather Roundup
Issued by NWS

Home | Current Version | Previous Version | Text Only | Print | Product List | Glossary Off
Versions: 1 2 3 4 5 6 7 8 9 10 11 12 13 14 15 16 17 18 19 20 21 22 23 24 25 26 27 28 29 30 31 32 33 34 35 36 37 38 39 40 41 42 43 44 45 46 47 48 49 50

000
ASUS43 KLOT 180500
RWRIL

ILLINOIS REGIONAL WEATHER ROUNDUP
NATIONAL WEATHER SERVICE CHICAGO/ROMEOVILLE IL
1100 PM CST WED DEC 17 2014

NOTE: "FAIR" INDICATES FEW OR NO CLOUDS BELOW 12,000 FEET WITH NO
SIGNIFICANT WEATHER AND/OR OBSTRUCTIONS TO VISIBILITY.

* THESE STATIONS ARE NOT UNDER NWS QUALITY CONTROL. THEY ALSO MAY NOT
  REPORT WEATHER SUCH AS PRECIPITATION OR FOG.

ILZ001-002-007-009-015-016-024-180600-
NORTHWEST ILLINOIS

CITY           SKY/WX    TMP DP  RH WIND       PRES   REMARKS
MOLINE         PTCLDY    18  15  88 CALM      30.31R
STERLING*      PTCLDY    18  12  79 CALM      30.31S
$$

ILZ003-004-008-010-011-017-018-180600-
NORTH CENTRAL ILLINOIS

CITY           SKY/WX    TMP DP  RH WIND       PRES   REMARKS
ROCKFORD       CLOUDY    23  14  68 VRB3      30.32R
DE KALB*       CLOUDY    22  15  76 NW3       30.29R
$$

ILZ005-006-012>014-019>023-180600-
NORTHEAST ILLINOIS

CITY           SKY/WX    TMP DP  RH WIND       PRES   REMARKS
CHICAGO-OHARE  FLURRIES  24  15  68 NW9       30.28R WCI  14
CHICAGO-MIDWAY CLOUDY    27  16  63 W7        30.29R WCI  19
AURORA         CLOUDY    24  15  68 NW7       30.29S WCI  16
WAUKEGAN       FAIR      20  14  77 W3        30.27R
DUPAGE AIRPORT CLOUDY    24  16  71 W7        30.28R WCI  16
WHEELING       CLOUDY    25  15  66 VRB6      30.30R WCI  18
NORTHERLY ISL    N/A     26  17  68 NW3         N/A
$$

LMZ740>746-180600-
SOUTHERN LAKE MICHIGAN

STATION/POSITION SKY/WX   TEMP    WIND        PRES    VSBY  WAVE
                          AIR SEA DIR/SP/G                  HT/PER
                          (F)     (DEG/KT/KT) (MB)    (MI)  (FT/S)
WAUKEGAN HARBOR            22      CALM  /  9   N/A
HARRISON CRIB              25     300/  8/ 11   N/A
BURNHAM HARBOR             26     260/  4/  9   N/A
CALUMET HARBOR             25     260/  4/  7 1024.3R
$$

ILZ025>027-034>036-040-047-049-050-058-095>099-180600-
WEST-CENTRAL ILLINOIS

CITY           SKY/WX    TMP DP  RH WIND       PRES   REMARKS
QUINCY         CLOUDY    25  19  78 CALM      30.31R
MACOMB*        MOCLDY    20  18  93 CALM      30.32F
$$

ILZ028>032-037-038-041>044-048-051>054-059>061-180600-
CENTRAL ILLINOIS

CITY           SKY/WX    TMP DP  RH WIND       PRES   REMARKS
DECATUR        CLOUDY    24  19  81 SE3       30.31S
PEORIA         PTCLDY    23  17  78 NE6       30.30F WCI  16
LINCOLN*       MOCLDY    22  19  91 S3        30.33S
SPRINGFIELD    CLOUDY    22  19  89 CALM      30.31F
TAYLORVILLE    NOT AVBL
$$

ILZ033-039-045-046-055>057-062-063-180600-
EAST-CENTRAL ILLINOIS

CITY           SKY/WX    TMP DP  RH WIND       PRES   REMARKS
CHAMPAIGN      CLOUDY    26  19  74 NW6       30.31R WCI  19
MATTOON        CLOUDY    24  17  74 N6        30.30R WCI  17
$$

ILZ079-100>102-180600-
SOUTHWEST ILLINOIS

CITY           SKY/WX    TMP DP  RH WIND       PRES   REMARKS
BELLEVILLE     CLOUDY    30  27  88 E5        30.30S WCI  25
CAHOKIA*       CLOUDY    32  25  75 NE6       30.31S WCI  26
$$

ILZ064>066-069>071-074>076-080>082-084>086-088>090-092>094-180600-
SOUTH-CENTRAL ILLINOIS

CITY           SKY/WX    TMP DP  RH WIND       PRES   REMARKS
CARBONDALE     CLOUDY    33  26  75 E7        30.31R WCI  27
MT. VERNON     CLOUDY    28  21  74 NE5       30.31S WCI  23
$$

ILZ067-068-072-073-078-083-087-091-180600-
SOUTHEAST ILLINOIS

CITY           SKY/WX    TMP DP  RH WIND       PRES   REMARKS
LAWRENCEVILLE  CLOUDY    27  22  81 NE10      30.31F WCI  17
ROBINSON*      CLOUDY    25  21  86 N3        30.34S
$$

ABBREVIATIONS USED IN REMARKS
   TC - TEMPERATURE IN CELSIUS
  WCI - WIND CHILL INDEX
   HX - HEAT INDEX
  VSB - VISIBILITY
$$




USA.gov is the U.S. government's official web portal to all federal, state and local government web resources and services.